Volver al catálogo

STARLINK-35057

ActivoComunicacionesSSO
NORAD 65525·PAYLOAD·🇺🇸 United States

Lanzado Sep 6, 2025 desde Cape Canaveral Space Force Station

Loading…

Próximos Pases (próximas 24 horas)

TLE

ActualizadoSource: CelesTrak SupGP

Época: Sep 14, 2026, 21:01 UTC

1 65525C 25200F   26257.87618056 -.00032664  00000+0 -10140-2 0  2572
2 65525  97.2848 324.4030 0001570  95.4987 259.9479 15.33453738    12

Sigue STARLINK-35057 en tiempo real con AllMySat

Download on the App Store